Surface/Precipitation History
12/06/2017 18:43  to  12/7/2017 18:43
Change End Date:
Date/Time
(MST)
Sf
Temp Chem Water Layer Surface Precipitation
Sfc Pvt Sub Frz Factor Pct Dpth DpthThk IcePct Cond Salin FI Type Intens Accum Rate
12/07/2017 18:38 Ice Warning 23.2F - 32F 32F 20 0% - - 99% 0 mhos 48 - None None - -
12/07/2017 18:31 Ice Warning 23.2F - 32F 32F 20 0% - - 99% 0 mhos 48 - None None - -
12/07/2017 18:28 Ice Warning 23.4F - 32F 32F 20 0% - - 99% 0 mhos 48 - None None - -
12/07/2017 18:18 Ice Warning 23.5F - 32F 32F 25 0% - - 99% 0 mhos 48 - None None - -
12/07/2017 18:16 Ice Warning 23.5F - 32F 32F 25 0% - - 99% 0 mhos 48 - None None - -
12/07/2017 18:08 Ice Warning 23.7F - 32F 32F 25 0% - - 99% 0 mhos 47 - None None - -
12/07/2017 18:01 Ice Warning 23.9F - 32F 32F 25 0% - - 99% 0 mhos 47 - None None - -
12/07/2017 17:58 Ice Warning 23.9F - 32F 32F 25 0% - - 99% 0 mhos 47 - None None - -
12/07/2017 17:48 Ice Warning 24.3F - 32F 32F 25 0% - - 99% 0 mhos 45 - None None - -
12/07/2017 17:46 Ice Warning 24.3F - 32F 32F 25 0% - - 99% 0 mhos 45 - None None - -
12/07/2017 17:38 Ice Warning 24.6F - 32F 32F 25 0% - - 99% 0 mhos 45 - None None - -
12/07/2017 17:31 Ice Warning 24.6F - 32F 32F 25 0% - - 99% 0 mhos 44 - None None - -
12/07/2017 17:28 Ice Warning 24.6F - 32F 32F 30 0% - - 99% 0 mhos 43 - None None - -
12/07/2017 17:18 Ice Warning 25.0F - 32F 32F 30 0% - - 99% 0 mhos 42 - None None - -
12/07/2017 17:16 Ice Warning 25.2F - 32F 32F 30 0% - - 99% 0 mhos 41 - None None - -
Date/Time
(MST)
Sf
Temp Chem Water Layer Surface Precipitation
Sfc Pvt Sub Frz Factor Pct Dpth DpthThk IcePct Cond Salin FI Type Intens Accum Rate
12/07/2017 17:08 Ice Warning 25.5F - 32F 32F 30 0% - - 99% 0 mhos 38 - None None - -
12/07/2017 17:01 Ice Warning 25.7F - 32F 32F 30 0% - - 99% 0 mhos 36 - None None - -
12/07/2017 16:58 Ice Warning 25.7F - 32F 32F 30 0% - - 99% 0 mhos 35 - None None - -
12/07/2017 16:48 Ice Warning 26.2F - 32F 32F 30 0% - - 99% 0 mhos 32 - None None - -
12/07/2017 16:46 Ice Warning 26.2F - 32F 32F 25 0% - - 99% 0 mhos 32 - None None - -
12/07/2017 16:38 Ice Warning 27.0F - 32F 32F 25 0% - - 99% 0 mhos 30 - None None - -
12/07/2017 16:31 Ice Warning 27.5F - 32F 32F 20 0% - - 99% 0 mhos 27 - None None - -
12/07/2017 16:28 Ice Warning 27.7F - 32F 32F 20 0% - - 99% 0 mhos 27 - None None - -
12/07/2017 16:18 Ice Warning 28.2F - 32F 32F 15 0% - - 99% 0 mhos 24 - None None - -
12/07/2017 16:16 Ice Warning 28.4F - 32F 32F 10 0% - - 99% 0 mhos 24 - None None - -
12/07/2017 16:08 Ice Warning 29.1F - 32F 32F 10 0% - - 99% 0 mhos 21 - None None - -
12/07/2017 16:01 Ice Warning 29.5F - 32F 32F 5 0% - - 99% 0 mhos 20 - None None - -
12/07/2017 15:58 Ice Warning 29.7F - 32F 32F 5 0% - - 99% 0 mhos 20 - None None - -
12/07/2017 15:48 Ice Warning 30.2F - 32F 32F 5 0% - - 99% 0 mhos 17 - None None - -
12/07/2017 15:46 Ice Warning 30.4F - 32F 32F 5 0% - - 99% 0 mhos 17 - None None - -
Date/Time
(MST)
Sf
Temp Chem Water Layer Surface Precipitation
Sfc Pvt Sub Frz Factor Pct Dpth DpthThk IcePct Cond Salin FI Type Intens Accum Rate
12/07/2017 15:37 Ice Warning 31.5F - 32F 32F 5 0% - - 97% 0 mhos 15 - None None - -
12/07/2017 15:31 Wet 32.5F - 32F 32F 5 0% 0.00 in - 0% 0 mhos 14 - None None - -
12/07/2017 15:27 Wet 33.4F - 32F 32F 5 0% 0.00 in - 0% 0 mhos 14 - None None - -
12/07/2017 15:17 Wet 36.1F - 32F 32F 5 0% 0.00 in - 0% 0 mhos 13 - None None - -
12/07/2017 15:16 Wet 36.9F - 32F 32F 5 0% 0.00 in - 0% 0 mhos 13 - None None - -
12/07/2017 15:07 Wet 37.4F - 32F 32F 5 0% 0.00 in - 0% 0 mhos 12 - None None - -
12/07/2017 15:01 Wet 37.6F - 32F 32F 5 0% 0.00 in - 0% 0 mhos 12 - None None - -
12/07/2017 14:57 Wet 37.9F - 32F 32F 5 0% 0.00 in - 0% 0 mhos 11 - None None - -
12/07/2017 14:47 Wet 38.7F - 32F 32F 5 0% 0.00 in - 0% 0 mhos 11 - None None - -
12/07/2017 14:46 Wet 38.8F - 32F 32F 5 0% 0.00 in - 0% 0 mhos 10 - None None - -
12/07/2017 14:37 Wet 40.1F - 32F 32F 5 0% 0.00 in - 0% 0 mhos 8 - None None - -
12/07/2017 14:31 Wet 40.8F - 32F 32F 5 0% 0.00 in - 0% 0 mhos 8 - None None - -
12/07/2017 14:27 Wet 40.6F - 32F 32F 5 0% 0.00 in - 0% 0 mhos 8 - None None - -
12/07/2017 14:17 Wet 41.2F - 32F 32F 5 0% 0.00 in - 0% 0 mhos 8 - None None - -
12/07/2017 14:16 Wet 41.2F - 32F 32F 5 0% 0.00 in - 0% 0 mhos 8 - None None - -
Date/Time
(MST)
Sf
Temp Chem Water Layer Surface Precipitation
Sfc Pvt Sub Frz Factor Pct Dpth DpthThk IcePct Cond Salin FI Type Intens Accum Rate
12/07/2017 14:07 Wet 41.0F - 32F 32F 5 0% 0.00 in - 0% 0 mhos 8 - None None - -
12/07/2017 14:01 Wet 41.2F - 32F 32F 5 0% 0.00 in - 0% 0 mhos 8 - None None - -
12/07/2017 13:57 Wet 41.4F - 32F 32F 5 0% 0.00 in - 0% 0 mhos 8 - None None - -
12/07/2017 13:47 Wet 41.7F - 32F 32F 5 0% 0.00 in - 0% 0 mhos 8 - None None - -
12/07/2017 13:46 Wet 41.5F - 32F 32F 5 0% 0.00 in - 0% 0 mhos 8 - None None - -
12/07/2017 13:37 Wet 41.9F - 32F 32F 5 0% 0.00 in - 0% 0 mhos 8 - None None - -
12/07/2017 13:31 Wet 42.4F - 32F 32F 5 0% 0.00 in - 0% 0 mhos 8 - None None - -
12/07/2017 13:27 Wet 42.3F - 32F 32F 5 0% 0.00 in - 0% 0 mhos 8 - None None - -
12/07/2017 13:17 Wet 41.5F - 32F 32F 5 0% 0.00 in - 0% 0 mhos 8 - None None - -
12/07/2017 13:16 Wet 41.4F - 32F 32F 5 0% 0.00 in - 0% 0 mhos 8 - None None - -
12/07/2017 13:07 Wet 41.2F - 32F 32F 5 0% 0.00 in - 0% 0 mhos 8 - None None - -
12/07/2017 13:01 Wet 41.0F - 32F 32F 5 0% 0.00 in - 0% 0 mhos 10 - None None - -
12/07/2017 12:57 Wet 41.0F - 32F 32F 5 0% 0.00 in - 0% 0 mhos 10 - None None - -
12/07/2017 12:47 Wet 40.6F - 32F 32F 5 0% 0.00 in - 0% 0 mhos 11 - None None - -
12/07/2017 12:46 Wet 40.5F - 32F 32F 5 0% 0.00 in - 0% 0 mhos 11 - None None - -
Date/Time
(MST)
Sf
Temp Chem Water Layer Surface Precipitation
Sfc Pvt Sub Frz Factor Pct Dpth DpthThk IcePct Cond Salin FI Type Intens Accum Rate
12/07/2017 12:37 Wet 39.7F - 32F 32F 5 0% 0.00 in - 0% 0 mhos 12 - None None - -
12/07/2017 12:31 Wet 39.6F - 32F 32F 5 0% 0.00 in - 0% 0 mhos 12 - None None - -
12/07/2017 12:26 Wet 38.8F - 32F 32F 5 0% 0.00 in - 0% 0 mhos 13 - None None - -
12/07/2017 12:16 Wet 38.1F - 32F 32F 5 0% 0.00 in - 0% 0 mhos 13 - None None - -
12/07/2017 12:16 Wet 37.9F - 32F 32F 5 0% 0.00 in - 0% 0 mhos 13 - None None - -
12/07/2017 12:06 Wet 37.2F - 32F 32F 5 0% 0.00 in - 0% 0 mhos 14 - None None - -
12/07/2017 12:01 Wet 36.5F - 32F 32F 5 0% 0.00 in - 0% 0 mhos 14 - None None - -
12/07/2017 11:56 Wet 37.6F - 32F 32F 5 0% 0.00 in - 0% 0 mhos 15 - None None - -
12/07/2017 11:46 Wet 35.8F - 32F 32F 5 0% 0.00 in - 0% 0 mhos 16 - None None - -
12/07/2017 11:46 Wet 35.8F - 32F 32F 5 0% 0.00 in - 0% 0 mhos 16 - None None - -
12/07/2017 11:36 Wet 35.6F - 32F 32F 5 0% 0.00 in - 0% 0 mhos 17 - None None - -
12/07/2017 11:31 Wet 32.5F - 32F 32F 5 0% 0.00 in - 0% 0 mhos 17 - None None - -
12/07/2017 11:26 Wet 33.8F - 32F 32F 5 0% 0.00 in - 0% 0 mhos 18 - None None - -
12/07/2017 11:16 Wet 33.8F - 32F 32F 5 0% 0.00 in - 0% 0 mhos 18 - None None - -
12/07/2017 11:16 Wet 34.3F - 32F 32F 5 0% 0.00 in - 0% 0 mhos 18 - None None - -
Date/Time
(MST)
Sf
Temp Chem Water Layer Surface Precipitation
Sfc Pvt Sub Frz Factor Pct Dpth DpthThk IcePct Cond Salin FI Type Intens Accum Rate
12/07/2017 11:06 Wet 32.5F - 32F 32F 5 0% 0.00 in - 0% 0 mhos 19 - None None - -
12/07/2017 11:01 Ice Warning 31.6F - 32F 32F 5 0% - - 93% 0 mhos 20 - None None - -
12/07/2017 10:56 Ice Warning 31.3F - 32F 32F 5 0% - - 97% 0 mhos 20 - None None - -
12/07/2017 10:46 Wet 32.5F - 32F 32F 5 0% 0.00 in - 0% 0 mhos 23 - None None - -
12/07/2017 10:46 Wet 32.5F - 32F 32F 5 0% 0.00 in - 0% 0 mhos 23 - None None - -
12/07/2017 10:36 Ice Warning 30.9F - 32F 32F 5 0% - - 98% 0 mhos 26 - None None - -
12/07/2017 10:31 Ice Warning 30.2F - 32F 32F 5 0% - - 98% 0 mhos 27 - None None - -
12/07/2017 10:26 Ice Warning 29.5F - 32F 32F 5 0% - - 99% 0 mhos 27 - None None - -
12/07/2017 10:16 Ice Warning 27.9F - 32F 32F 5 0% - - 99% 0 mhos 29 - None None - -
12/07/2017 10:16 Ice Warning 27.9F - 32F 32F 5 0% - - 99% 0 mhos 29 - None None - -
12/07/2017 10:06 Ice Warning 26.4F - 32F 32F 5 0% - - 99% 0 mhos 31 - None None - -
12/07/2017 10:01 Ice Warning 25.5F - 32F 32F 5 0% - - 100% 0 mhos 31 - None None - -
12/07/2017 09:56 Ice Warning 24.4F - 32F 32F 5 0% - - 100% 0 mhos 31 - None None - -
12/07/2017 09:46 Ice Warning 22.1F - 32F 32F 10 0% - - 100% 0 mhos 31 - None None - -
12/07/2017 09:46 Ice Warning 22.1F - 32F 32F 10 0% - - 100% 0 mhos 31 - None None - -
Date/Time
(MST)
Sf
Temp Chem Water Layer Surface Precipitation
Sfc Pvt Sub Frz Factor Pct Dpth DpthThk IcePct Cond Salin FI Type Intens Accum Rate
12/07/2017 09:35 Ice Warning 21.9F - 32F 32F 15 0% - - 100% 0 mhos 30 - None None - -
12/07/2017 09:31 Ice Warning 21.7F - 32F 32F 15 0% - - 100% 0 mhos 30 - None None - -
12/07/2017 09:25 Ice Warning 21.4F - 32F 32F 15 0% - - 100% 0 mhos 29 - None None - -
12/07/2017 09:16 Ice Warning 21.2F - 33F 32F 10 0% - - 100% 0 mhos 27 - None None - -
12/07/2017 09:15 Ice Warning 21.2F - 33F 32F 10 0% - - 100% 0 mhos 27 - None None - -
12/07/2017 09:05 Ice Warning 21.4F - 33F 32F 10 0% - - 100% 0 mhos 26 - None None - -
12/07/2017 09:01 Ice Warning 21.0F - 33F 32F 5 0% - - 100% 0 mhos 25 - None None - -
12/07/2017 08:55 Ice Warning 20.5F - 33F 32F 5 0% - - 100% 0 mhos 24 - None None - -
12/07/2017 08:46 Ice Warning 20.1F - 33F 32F 5 0% - - 100% 0 mhos 23 - None None - -
12/07/2017 08:45 Ice Warning 20.1F - 33F 32F 5 0% - - 100% 0 mhos 23 - None None - -
12/07/2017 08:35 Ice Warning 19.6F - 33F 32F 5 0% - - 100% 0 mhos 22 - None None - -
12/07/2017 08:31 Ice Warning 19.4F - 33F 32F 5 0% - - 100% 0 mhos 22 - None None - -
12/07/2017 08:25 Ice Warning 19.0F - 33F 32F 5 0% - - 100% 0 mhos 22 - None None - -
12/07/2017 08:16 Ice Warning 18.7F - 33F 32F 5 0% - - 100% 0 mhos 21 - None None - -
12/07/2017 08:15 Ice Warning 18.7F - 33F 32F 5 0% - - 100% 0 mhos 21 - None None - -
Date/Time
(MST)
Sf
Temp Chem Water Layer Surface Precipitation
Sfc Pvt Sub Frz Factor Pct Dpth DpthThk IcePct Cond Salin FI Type Intens Accum Rate
12/07/2017 08:05 Ice Warning 18.3F - 33F 32F 5 0% - - 100% 0 mhos 21 - None None - -
12/07/2017 08:01 Ice Warning 18.3F - 33F 32F 5 0% - - 100% 0 mhos 21 - None None - -
12/07/2017 07:55 Ice Warning 18.1F - 33F 32F 5 0% - - 100% 0 mhos 21 - None None - -
12/07/2017 07:46 Ice Warning 17.6F - 33F 32F 5 0% - - 100% 0 mhos 20 - None None - -
12/07/2017 07:45 Ice Warning 17.6F - 33F 32F 5 0% - - 100% 0 mhos 20 - None None - -
12/07/2017 07:35 Ice Warning 17.4F - 33F 32F 5 0% - - 100% 0 mhos 20 - None None - -
12/07/2017 07:31 Ice Warning 17.2F - 33F 32F 5 0% - - 100% 0 mhos 20 - None None - -
12/07/2017 07:25 Ice Warning 17.4F - 33F 32F 5 0% - - 100% 0 mhos 20 - None None - -
12/07/2017 07:16 Ice Warning 17.6F - 33F 32F 5 0% - - 100% 0 mhos 20 - None None - -
12/07/2017 07:15 Ice Warning 17.6F - 33F 32F 5 0% - - 100% 0 mhos 20 - None None - -
12/07/2017 07:05 Ice Warning 17.8F - 33F 32F 5 0% - - 100% 0 mhos 20 - None None - -
12/07/2017 07:01 Ice Warning 17.8F - 33F 32F 5 0% - - 100% 0 mhos 20 - None None - -
12/07/2017 06:55 Ice Warning 18.0F - 33F 32F 5 0% - - 100% 0 mhos 20 - None None - -
12/07/2017 06:46 Ice Warning 18.1F - 33F 32F 5 0% - - 100% 0 mhos 20 - None None - -
12/07/2017 06:45 Ice Warning 18.1F - 33F 32F 5 0% - - 100% 0 mhos 20 - None None - -
Date/Time
(MST)
Sf
Temp Chem Water Layer Surface Precipitation
Sfc Pvt Sub Frz Factor Pct Dpth DpthThk IcePct Cond Salin FI Type Intens Accum Rate
12/07/2017 06:35 Ice Warning 18.1F - 33F 32F 5 0% - - 100% 0 mhos 20 - None None - -
12/07/2017 06:31 Ice Warning 18.3F - 33F 32F 5 0% - - 100% 0 mhos 20 - None None - -
12/07/2017 06:24 Ice Warning 18.3F - 33F 32F 5 0% - - 100% 0 mhos 20 - None None - -
12/07/2017 06:16 Ice Warning 18.3F - 33F 32F 5 0% - - 100% 0 mhos 20 - None None - -
12/07/2017 06:14 Ice Warning 18.3F - 33F 32F 5 0% - - 100% 0 mhos 20 - None None - -
12/07/2017 06:04 Ice Warning 18.5F - 33F 32F 5 0% - - 100% 0 mhos 20 - None None - -
12/07/2017 06:01 Ice Warning 18.5F - 33F 32F 5 0% - - 100% 0 mhos 20 - None None - -
12/07/2017 05:54 Ice Warning 18.5F - 33F 32F 5 0% - - 100% 0 mhos 20 - None None - -
12/07/2017 05:46 Ice Warning 18.7F - 33F 32F 5 0% - - 100% 0 mhos 20 - None None - -
12/07/2017 05:44 Ice Warning 18.7F - 33F 32F 5 0% - - 100% 0 mhos 20 - None None - -
12/07/2017 05:34 Ice Warning 19.0F - 33F 32F 5 0% - - 100% 0 mhos 20 - None None - -
12/07/2017 05:31 Ice Warning 19.0F - 33F 32F 5 0% - - 100% 0 mhos 20 - None None - -
12/07/2017 05:24 Ice Warning 19.0F - 33F 32F 5 0% - - 100% 0 mhos 20 - None None - -
12/07/2017 05:16 Ice Warning 19.2F - 33F 32F 5 0% - - 100% 0 mhos 20 - None None - -
12/07/2017 05:14 Ice Warning 19.2F - 33F 32F 5 0% - - 100% 0 mhos 20 - None None - -
Date/Time
(MST)
Sf
Temp Chem Water Layer Surface Precipitation
Sfc Pvt Sub Frz Factor Pct Dpth DpthThk IcePct Cond Salin FI Type Intens Accum Rate
12/07/2017 05:04 Ice Warning 19.4F - 33F 32F 5 0% - - 100% 0 mhos 20 - None None - -
12/07/2017 05:01 Ice Warning 19.4F - 33F 32F 5 0% - - 100% 0 mhos 20 - None None - -
12/07/2017 04:54 Ice Warning 19.4F - 33F 32F 5 0% - - 100% 0 mhos 20 - None None - -
12/07/2017 04:46 Ice Warning 19.4F - 33F 32F 5 0% - - 100% 0 mhos 21 - None None - -
12/07/2017 04:44 Ice Warning 19.4F - 33F 32F 5 0% - - 100% 0 mhos 21 - None None - -
12/07/2017 04:34 Ice Warning 19.4F - 33F 32F 5 0% - - 100% 0 mhos 21 - None None - -
12/07/2017 04:31 Ice Warning 19.4F - 33F 32F 5 0% - - 100% 0 mhos 21 - None None - -
12/07/2017 04:24 Ice Warning 19.6F - 33F 32F 5 0% - - 100% 0 mhos 21 - None None - -
12/07/2017 04:16 Ice Warning 19.6F - 33F 32F 5 0% - - 100% 0 mhos 21 - None None - -
12/07/2017 04:14 Ice Warning 19.6F - 33F 32F 5 0% - - 100% 0 mhos 21 - None None - -
12/07/2017 04:04 Ice Warning 19.6F - 33F 32F 5 0% - - 100% 0 mhos 21 - None None - -
12/07/2017 04:01 Ice Warning 19.8F - 33F 32F 5 0% - - 100% 0 mhos 21 - None None - -
12/07/2017 03:54 Ice Warning 19.9F - 33F 32F 5 0% - - 100% 0 mhos 21 - None None - -
12/07/2017 03:46 Ice Warning 19.9F - 33F 32F 5 0% - - 100% 0 mhos 21 - None None - -
12/07/2017 03:44 Ice Warning 19.9F - 33F 32F 5 0% - - 100% 0 mhos 21 - None None - -
Date/Time
(MST)
Sf
Temp Chem Water Layer Surface Precipitation
Sfc Pvt Sub Frz Factor Pct Dpth DpthThk IcePct Cond Salin FI Type Intens Accum Rate
12/07/2017 03:34 Ice Warning 19.9F - 33F 32F 5 0% - - 100% 0 mhos 21 - None None - -
12/07/2017 03:31 Ice Warning 20.1F - 33F 32F 5 0% - - 100% 0 mhos 21 - None None - -
12/07/2017 03:24 Ice Warning 20.1F - 33F 32F 5 0% - - 100% 0 mhos 21 - None None - -
12/07/2017 03:16 Ice Warning 20.3F - 33F 32F 5 0% - - 100% 0 mhos 21 - None None - -
12/07/2017 03:14 Ice Warning 20.3F - 33F 32F 5 0% - - 100% 0 mhos 21 - None None - -
12/07/2017 03:04 Ice Warning 20.3F - 33F 32F 5 0% - - 100% 0 mhos 21 - None None - -
12/07/2017 03:01 Ice Warning 20.3F - 33F 32F 5 0% - - 100% 0 mhos 21 - None None - -
12/07/2017 02:54 Ice Warning 20.3F - 33F 32F 5 0% - - 100% 0 mhos 22 - None None - -
12/07/2017 02:46 Ice Warning 20.3F - 33F 32F 5 0% - - 100% 0 mhos 22 - None None - -
12/07/2017 02:43 Ice Warning 20.3F - 33F 32F 5 0% - - 100% 0 mhos 22 - None None - -
12/07/2017 02:33 Ice Warning 20.5F - 33F 32F 5 0% - - 100% 0 mhos 22 - None None - -
12/07/2017 02:31 Ice Warning 20.5F - 33F 32F 5 0% - - 100% 0 mhos 22 - None None - -
12/07/2017 02:23 Ice Warning 20.5F - 33F 32F 5 0% - - 100% 0 mhos 22 - None None - -
12/07/2017 02:16 Ice Warning 20.5F - 33F 32F 5 0% - - 100% 0 mhos 22 - None None - -
12/07/2017 02:13 Ice Warning 20.5F - 33F 32F 5 0% - - 100% 0 mhos 23 - None None - -
Date/Time
(MST)
Sf
Temp Chem Water Layer Surface Precipitation
Sfc Pvt Sub Frz Factor Pct Dpth DpthThk IcePct Cond Salin FI Type Intens Accum Rate
12/07/2017 02:03 Ice Warning 20.5F - 33F 32F 5 0% - - 100% 0 mhos 23 - None None - -
12/07/2017 02:01 Ice Warning 20.7F - 33F 32F 5 0% - - 100% 0 mhos 23 - None None - -
12/07/2017 01:53 Ice Warning 20.8F - 33F 32F 5 0% - - 100% 0 mhos 23 - None None - -
12/07/2017 01:46 Ice Warning 20.8F - 33F 32F 5 0% - - 100% 0 mhos 23 - None None - -
12/07/2017 01:43 Ice Warning 20.8F - 33F 32F 5 0% - - 100% 0 mhos 24 - None None - -
12/07/2017 01:33 Ice Warning 20.8F - 33F 32F 5 0% - - 100% 0 mhos 24 - None None - -
12/07/2017 01:31 Ice Warning 20.8F - 33F 32F 5 0% - - 100% 0 mhos 24 - None None - -
12/07/2017 01:23 Ice Warning 20.8F - 33F 32F 5 0% - - 100% 0 mhos 24 - None None - -
12/07/2017 01:16 Ice Warning 21.0F - 33F 32F 5 0% - - 100% 0 mhos 25 - None None - -
12/07/2017 01:13 Ice Warning 21.0F - 33F 32F 5 0% - - 100% 0 mhos 25 - None None - -
12/07/2017 01:03 Ice Warning 21.2F - 33F 32F 5 0% - - 100% 0 mhos 25 - None None - -
12/07/2017 01:01 Ice Warning 21.2F - 33F 32F 5 0% - - 100% 0 mhos 25 - None None - -
12/07/2017 00:53 Ice Warning 21.2F - 33F 32F 5 0% - - 100% 0 mhos 25 - None None - -
12/07/2017 00:46 Ice Warning 21.2F - 33F 32F 5 0% - - 100% 0 mhos 26 - None None - -
12/07/2017 00:43 Ice Warning 21.4F - 33F 32F 5 0% - - 100% 0 mhos 26 - None None - -
Date/Time
(MST)
Sf
Temp Chem Water Layer Surface Precipitation
Sfc Pvt Sub Frz Factor Pct Dpth DpthThk IcePct Cond Salin FI Type Intens Accum Rate
12/07/2017 00:33 Ice Warning 21.4F - 33F 32F 5 0% - - 100% 0 mhos 26 - None None - -
12/07/2017 00:31 Ice Warning 21.4F - 33F 32F 5 0% - - 100% 0 mhos 26 - None None - -
12/07/2017 00:23 Ice Warning 21.4F - 33F 32F 5 0% - - 100% 0 mhos 26 - None None - -
12/07/2017 00:16 Ice Warning 21.6F - 33F 32F 5 0% - - 100% 0 mhos 27 - None None - -
12/07/2017 00:13 Ice Warning 21.6F - 33F 32F 5 0% - - 100% 0 mhos 27 - None None - -
12/07/2017 00:03 Ice Warning 21.6F - 33F 32F 5 0% - - 100% 0 mhos 27 - None None - -
12/07/2017 00:01 Ice Warning 21.7F - 33F 32F 5 0% - - 100% 0 mhos 27 - None None - -
12/06/2017 23:53 Ice Warning 21.9F - 33F 32F 5 0% - - 100% 0 mhos 28 - None None - -
12/06/2017 23:46 Ice Warning 21.9F - 33F 32F 5 0% - - 100% 0 mhos 28 - None None - -
12/06/2017 23:43 Ice Warning 22.1F - 33F 32F 5 0% - - 100% 0 mhos 28 - None None - -
12/06/2017 23:33 Ice Warning 22.3F - 34F 32F 5 0% - - 100% 0 mhos 28 - None None - -
12/06/2017 23:31 Ice Warning 22.3F - 33F 32F 5 0% - - 100% 0 mhos 28 - None None - -
12/06/2017 23:23 Ice Warning 22.5F - 34F 32F 5 0% - - 100% 0 mhos 28 - None None - -
12/06/2017 23:16 Ice Warning 22.5F - 34F 32F 5 0% - - 100% 0 mhos 29 - None None - -
12/06/2017 23:13 Ice Warning 22.6F - 34F 32F 5 0% - - 100% 0 mhos 29 - None None - -
Date/Time
(MST)
Sf
Temp Chem Water Layer Surface Precipitation
Sfc Pvt Sub Frz Factor Pct Dpth DpthThk IcePct Cond Salin FI Type Intens Accum Rate
12/06/2017 23:03 Ice Warning 22.6F - 34F 32F 5 0% - - 100% 0 mhos 29 - None None - -
12/06/2017 23:01 Ice Warning 22.5F - 34F 32F 5 0% - - 100% 0 mhos 29 - None None - -
12/06/2017 22:52 Ice Warning 22.3F - 34F 32F 5 0% - - 100% 0 mhos 29 - None None - -
12/06/2017 22:46 Ice Warning 22.3F - 34F 32F 5 0% - - 100% 0 mhos 29 - None None - -
12/06/2017 22:42 Ice Warning 22.5F - 34F 32F 5 0% - - 100% 0 mhos 30 - None None - -
12/06/2017 22:32 Ice Warning 22.3F - 34F 32F 5 0% - - 100% 0 mhos 30 - None None - -
12/06/2017 22:31 Ice Warning 22.5F - 34F 32F 5 0% - - 100% 0 mhos 30 - None None - -
12/06/2017 22:22 Ice Warning 22.5F - 34F 32F 5 0% - - 100% 0 mhos 30 - None None - -
12/06/2017 22:16 Ice Warning 22.5F - 34F 32F 5 0% - - 100% 0 mhos 31 - None None - -
12/06/2017 22:12 Ice Warning 22.5F - 34F 32F 5 0% - - 100% 0 mhos 31 - None None - -
12/06/2017 22:02 Ice Warning 22.5F - 34F 32F 5 0% - - 100% 0 mhos 31 - None None - -
12/06/2017 22:01 Ice Warning 22.5F - 34F 32F 10 0% - - 100% 0 mhos 31 - None None - -
12/06/2017 21:52 Ice Warning 22.6F - 34F 32F 10 0% - - 100% 0 mhos 32 - None None - -
12/06/2017 21:46 Ice Warning 22.8F - 34F 32F 10 0% - - 100% 0 mhos 32 - None None - -
12/06/2017 21:42 Ice Warning 22.8F - 34F 32F 10 0% - - 100% 0 mhos 32 - None None - -
Date/Time
(MST)
Sf
Temp Chem Water Layer Surface Precipitation
Sfc Pvt Sub Frz Factor Pct Dpth DpthThk IcePct Cond Salin FI Type Intens Accum Rate
12/06/2017 21:32 Ice Warning 23.0F - 34F 32F 10 0% - - 100% 0 mhos 32 - None None - -
12/06/2017 21:31 Ice Warning 23.0F - 34F 32F 10 0% - - 100% 0 mhos 32 - None None - -
12/06/2017 21:22 Ice Warning 23.0F - 34F 32F 10 0% - - 100% 0 mhos 32 - None None - -
12/06/2017 21:16 Ice Warning 23.2F - 34F 32F 10 0% - - 100% 0 mhos 32 - None None - -
12/06/2017 21:12 Ice Warning 23.2F - 34F 32F 15 0% - - 100% 0 mhos 33 - None None - -
12/06/2017 21:02 Ice Warning 23.4F - 34F 32F 15 0% - - 100% 0 mhos 33 - None None - -
12/06/2017 21:01 Ice Warning 23.4F - 34F 32F 15 0% - - 100% 0 mhos 32 - None None - -
12/06/2017 20:52 Ice Warning 23.5F - 34F 32F 15 0% - - 100% 0 mhos 33 - None None - -
12/06/2017 20:46 Ice Warning 23.5F - 34F 32F 15 0% - - 100% 0 mhos 33 - None None - -
12/06/2017 20:42 Ice Warning 23.5F - 34F 32F 15 0% - - 100% 0 mhos 33 - None None - -
12/06/2017 20:32 Ice Warning 23.5F - 34F 32F 15 0% - - 100% 0 mhos 33 - None None - -
12/06/2017 20:31 Ice Warning 23.5F - 34F 32F 15 0% - - 100% 0 mhos 33 - None None - -
12/06/2017 20:22 Ice Warning 23.5F - 34F 32F 15 0% - - 100% 0 mhos 33 - None None - -
12/06/2017 20:16 Ice Warning 23.7F - 34F 32F 15 0% - - 100% 0 mhos 33 - None None - -
12/06/2017 20:12 Ice Warning 23.7F - 34F 32F 15 0% - - 100% 0 mhos 33 - None None - -
Date/Time
(MST)
Sf
Temp Chem Water Layer Surface Precipitation
Sfc Pvt Sub Frz Factor Pct Dpth DpthThk IcePct Cond Salin FI Type Intens Accum Rate
12/06/2017 20:02 Ice Warning 23.7F - 34F 32F 20 0% - - 100% 0 mhos 32 - None None - -
12/06/2017 20:01 Ice Warning 23.9F - 34F 32F 20 0% - - 100% 0 mhos 32 - None None - -
12/06/2017 19:52 Ice Warning 24.1F - 34F 32F 20 0% - - 100% 0 mhos 32 - None None - -
12/06/2017 19:46 Ice Warning 24.3F - 34F 32F 20 0% - - 100% 0 mhos 31 - None None - -
12/06/2017 19:42 Ice Warning 24.3F - 34F 32F 20 0% - - 100% 0 mhos 31 - None None - -
12/06/2017 19:32 Ice Warning 24.4F - 34F 32F 20 0% - - 100% 0 mhos 30 - None None - -
12/06/2017 19:31 Ice Warning 24.6F - 34F 32F 20 0% - - 100% 0 mhos 30 - None None - -
12/06/2017 19:22 Ice Warning 24.6F - 34F 32F 20 0% - - 100% 0 mhos 30 - None None - -
12/06/2017 19:16 Ice Warning 24.6F - 34F 32F 20 0% - - 100% 0 mhos 29 - None None - -
12/06/2017 19:12 Ice Warning 24.8F - 34F 32F 20 0% - - 100% 0 mhos 28 - None None - -
12/06/2017 19:02 Ice Warning 25.0F - 34F 32F 20 0% - - 100% 0 mhos 27 - None None - -
12/06/2017 19:01 Ice Warning 25.0F - 34F 32F 20 0% - - 100% 0 mhos 27 - None None - -
12/06/2017 18:52 Ice Warning 25.2F - 34F 32F 20 0% - - 100% 0 mhos 26 - None None - -
12/06/2017 18:46 Ice Warning 25.3F - 34F 32F 20 0% - - 100% 0 mhos 26 - None None - -
Change End Date:

Copyright © 1998-2015 Vaisala, Inc.
All Rights Reserved
Send comments about the data to:
SCAN Web ® is a registered trademark of Vaisala, Inc.
SCAN Web Version 6.0